PORTS® Data Listing: 9099004 Point Iroquois, MI

CO-OPS RAW PORTS DATA

************************      PRELIMINARY DATA      ************************** 

     THIS RAW DATA HAS NOT BEEN SUBJECT TO THE NATIONAL OCEAN SERVICE'S        
     QUALITY CONTROL OR QUALITY ASSURANCE PROCEDURES AND DOES NOT MEET         
     THE CRITERIA AND STANDARDS OF OFFICIAL NATIONAL OCEAN SERVICE             
     DATA.  IT IS RELEASED FOR LIMITED PUBLIC USE AS PRELIMINARY DATA TO       
     BE USED ONLY WITH APPROPRIATE CAUTION.                                    

************************      PRELIMINARY DATA      ************************** 


       CD   -   Calendar date
       T    -   Time
       TZ   -   Timezone
       SW   -   Observed secondary water level (inches IGLD 1985)
       PW   -   Observed primary water level (inches IGLD 1985)
       WS   -   Wind speed (knots)
       WD   -   Wind direction (degrees true)
       WG   -   Wind gust (knots)
       AT   -   Air temperature (degrees farenheit)
       WT   -   Water temperature (degrees farenheit)
       AP   -   Air pressure (millibars)
       SA   -   Salinty (PSU - Practical Salinity Units)
       SG   -   Specific gravity
       RH   -   Relative humidity
       AG   -   Air gap (feet)
       VI   -   Visibility (nautical miles)

       ** NOTE **
       A variable that has its data fields filled with "9"s, indicates that
       data was not collected for that sample period.
       **********


STATION NAME: Point Iroquois (9099004)
****************************************************************************************************
    CD       T    TZ    SW     PW    WS   WD   WG    AT    WT    AP    SA    SG     RH    AG   VI
****************************************************************************************************
2019/12/13 04:30 EST  -99.99  19.72    7   71    8  27.3 -99.9 1014.2 -9.9 -9.999  91.7 -99.99 -9.99
2019/12/13 04:36 EST  -99.99  19.41    7   75    8  27.3 -99.9 1014.1 -9.9 -9.999  92.0 -99.99 -9.99
2019/12/13 04:42 EST  -99.99  19.33    7   73    8  27.3 -99.9 1014.0 -9.9 -9.999  92.2 -99.99 -9.99
2019/12/13 04:48 EST  -99.99  19.45    7   73    8  27.3 -99.9 1014.0 -9.9 -9.999  91.8 -99.99 -9.99
2019/12/13 04:54 EST  -99.99  19.49    7   74    8  27.1 -99.9 1014.0 -9.9 -9.999  91.2 -99.99 -9.99
2019/12/13 05:00 EST  -99.99  19.88    7   77    8  27.0 -99.9 1014.0 -9.9 -9.999  91.5 -99.99 -9.99
2019/12/13 05:06 EST  -99.99  20.08    8   67    9  27.0 -99.9 1013.9 -9.9 -9.999  91.9 -99.99 -9.99
2019/12/13 05:12 EST  -99.99  19.76    8   73    9  27.0 -99.9 1013.9 -9.9 -9.999  92.0 -99.99 -9.99
2019/12/13 05:18 EST  -99.99  20.39    7   79    9  27.0 -99.9 1013.9 -9.9 -9.999  92.9 -99.99 -9.99
2019/12/13 05:24 EST  -99.99  20.63    7   87    8  27.0 -99.9 1013.9 -9.9 -9.999  93.3 -99.99 -9.99
2019/12/13 05:30 EST  -99.99  20.71    7   84    8  27.0 -99.9 1013.9 -9.9 -9.999  92.2 -99.99 -9.99
2019/12/13 05:36 EST  -99.99  20.67    7   80    8  27.0 -99.9 1013.9 -9.9 -9.999  93.8 -99.99 -9.99
2019/12/13 05:42 EST  -99.99  21.18    7   93    8  27.0 -99.9 1013.9 -9.9 -9.999  93.4 -99.99 -9.99
2019/12/13 05:48 EST  -99.99  21.50    6   80    7  27.0 -99.9 1013.9 -9.9 -9.999  93.8 -99.99 -9.99
2019/12/13 05:54 EST  -99.99  21.93    6   83    7  27.0 -99.9 1013.9 -9.9 -9.999  94.1 -99.99 -9.99
2019/12/13 06:00 EST  -99.99  22.20    5   90    7  27.0 -99.9 1014.0 -9.9 -9.999  94.7 -99.99 -9.99
2019/12/13 06:06 EST  -99.99  22.28    5  108    7  26.8 -99.9 1014.0 -9.9 -9.999  94.4 -99.99 -9.99
2019/12/13 06:12 EST  -99.99  22.32    6   94    7  26.8 -99.9 1014.0 -9.9 -9.999  95.3 -99.99 -9.99
2019/12/13 06:18 EST  -99.99  21.93    5   98    7  26.8 -99.9 1013.9 -9.9 -9.999  94.8 -99.99 -9.99
2019/12/13 06:24 EST  -99.99  21.81    5   80    6  26.8 -99.9 1013.9 -9.9 -9.999  94.9 -99.99 -9.99
2019/12/13 06:30 EST  -99.99  21.73    5   88    7  26.6 -99.9 1013.9 -9.9 -9.999  95.3 -99.99 -9.99
2019/12/13 06:36 EST  -99.99  21.65    6   83    7  26.8 -99.9 1013.9 -9.9 -9.999  96.1 -99.99 -9.99
2019/12/13 06:42 EST  -99.99  21.22    6   85    7  26.6 -99.9 1013.9 -9.9 -9.999  96.4 -99.99 -9.99
2019/12/13 06:48 EST  -99.99  21.34    6   85    7  26.4 -99.9 1013.9 -9.9 -9.999  95.4 -99.99 -9.99
2019/12/13 06:54 EST  -99.99  21.42    6   87    8  26.4 -99.9 1013.9 -9.9 -9.999  96.7 -99.99 -9.99
2019/12/13 07:00 EST  -99.99  21.30    6   93    7  26.6 -99.9 1013.9 -9.9 -9.999  96.8 -99.99 -9.99
2019/12/13 07:06 EST  -99.99  20.87    6   91    7  26.4 -99.9 1013.9 -9.9 -9.999  97.2 -99.99 -9.99
2019/12/13 07:12 EST  -99.99  21.02    5   94    7  26.6 -99.9 1014.0 -9.9 -9.999  97.3 -99.99 -9.99
2019/12/13 07:18 EST  -99.99  20.87    6  102    7  26.6 -99.9 1013.9 -9.9 -9.999  97.6 -99.99 -9.99
2019/12/13 07:24 EST  -99.99  20.98    6   97    8  26.4 -99.9 1013.9 -9.9 -9.999  98.7 -99.99 -9.99
2019/12/13 07:30 EST  -99.99  20.98    7   97    8  26.4 -99.9 1013.9 -9.9 -9.999  99.3 -99.99 -9.99
2019/12/13 07:36 EST  -99.99  21.57    6  102    8  26.4 -99.9 1013.8 -9.9 -9.999  99.7 -99.99 -9.99
2019/12/13 07:42 EST  -99.99  21.18    6   98    8  26.2 -99.9 1013.8 -9.9 -9.999 100.0 -99.99 -9.99
2019/12/13 07:48 EST  -99.99  21.26    6  100    8  26.2 -99.9 1013.8 -9.9 -9.999 100.0 -99.99 -9.99
2019/12/13 07:54 EST  -99.99  21.10    6   97    7  26.2 -99.9 1013.8 -9.9 -9.999 100.0 -99.99 -9.99
2019/12/13 08:00 EST  -99.99  21.22    6   97    7  26.2 -99.9 1013.8 -9.9 -9.999 100.0 -99.99 -9.99
2019/12/13 08:06 EST  -99.99  20.94    5   94    7  26.2 -99.9 1013.9 -9.9 -9.999 100.0 -99.99 -9.99
2019/12/13 08:12 EST  -99.99  21.02    5   91    6  26.4 -99.9 1013.9 -9.9 -9.999 100.0 -99.99 -9.99
2019/12/13 08:18 EST  -99.99  20.71    5   98    6  26.4 -99.9 1013.9 -9.9 -9.999 100.0 -99.99 -9.99
2019/12/13 08:24 EST  -99.99  20.75    5   96    6  26.4 -99.9 1013.9 -9.9 -9.999 100.0 -99.99 -9.99
2019/12/13 08:30 EST  -99.99  20.71    5  100    6  26.2 -99.9 1013.8 -9.9 -9.999 100.0 -99.99 -9.99
2019/12/13 08:36 EST  -99.99  20.98    6   98    7  26.2 -99.9 1013.7 -9.9 -9.999 100.0 -99.99 -9.99
2019/12/13 08:42 EST  -99.99  20.79    6   97    7  26.4 -99.9 1013.7 -9.9 -9.999 100.0 -99.99 -9.99
2019/12/13 08:48 EST  -99.99  20.83    6  106    7  26.2 -99.9 1013.7 -9.9 -9.999 100.0 -99.99 -9.99
2019/12/13 08:54 EST  -99.99  20.94    6   97    7  26.4 -99.9 1013.7 -9.9 -9.999  99.9 -99.99 -9.99
2019/12/13 09:00 EST  -99.99  21.02    7  105    9  26.4 -99.9 1013.6 -9.9 -9.999  99.9 -99.99 -9.99
2019/12/13 09:06 EST  -99.99  20.87    8   98    9  26.4 -99.9 1013.6 -9.9 -9.999  99.7 -99.99 -9.99
2019/12/13 09:12 EST  -99.99  21.30    7   91    9  26.4 -99.9 1013.6 -9.9 -9.999 100.0 -99.99 -9.99
2019/12/13 09:18 EST  -99.99  21.30    8   98    9  26.2 -99.9 1013.6 -9.9 -9.999  99.8 -99.99 -9.99
2019/12/13 09:24 EST  -99.99  21.65    7   96    9  26.4 -99.9 1013.6 -9.9 -9.999  99.7 -99.99 -9.99
2019/12/13 09:30 EST  -99.99  21.93    8   99    9  26.4 -99.9 1013.6 -9.9 -9.999  99.3 -99.99 -9.99
2019/12/13 09:36 EST  -99.99  22.13    7  102    9  26.4 -99.9 1013.6 -9.9 -9.999  99.4 -99.99 -9.99
2019/12/13 09:42 EST  -99.99  22.09    7   96    9  26.8 -99.9 1013.6 -9.9 -9.999  98.9 -99.99 -9.99
2019/12/13 09:48 EST  -99.99  21.97    8   98   10  26.6 -99.9 1013.6 -9.9 -9.999  99.3 -99.99 -9.99
2019/12/13 09:54 EST  -99.99  21.97    8   97    9  26.8 -99.9 1013.6 -9.9 -9.999  99.1 -99.99 -9.99
2019/12/13 10:00 EST  -99.99  22.09    8   97   10  26.8 -99.9 1013.6 -9.9 -9.999  98.4 -99.99 -9.99
2019/12/13 10:06 EST  -99.99  21.85    8   98    9  26.8 -99.9 1013.6 -9.9 -9.999  97.8 -99.99 -9.99
2019/12/13 10:12 EST  -99.99  21.93    7  106    9  27.1 -99.9 1013.6 -9.9 -9.999  98.5 -99.99 -9.99
2019/12/13 10:18 EST  -99.99  21.81    7   90    9  27.1 -99.9 1013.6 -9.9 -9.999  97.5 -99.99 -9.99
2019/12/13 10:24 EST  -99.99  22.01    6   92    7  27.3 -99.9 1013.6 -9.9 -9.999  97.5 -99.99 -9.99
2019/12/13 10:30 EST  -99.99  22.05    7   96    8  27.5 -99.9 1013.6 -9.9 -9.999  97.6 -99.99 -9.99
2019/12/13 10:36 EST  -99.99  22.36    8  103   10  27.5 -99.9 1013.6 -9.9 -9.999  97.4 -99.99 -9.99
2019/12/13 10:42 EST  -99.99  22.36    9   99   10  27.3 -99.9 1013.5 -9.9 -9.999  96.7 -99.99 -9.99
2019/12/13 10:48 EST  -99.99  22.60    7   99   10  27.3 -99.9 1013.5 -9.9 -9.999  97.6 -99.99 -9.99
2019/12/13 10:54 EST  -99.99  22.56    7  105    8  27.5 -99.9 1013.5 -9.9 -9.999  97.2 -99.99 -9.99
2019/12/13 11:00 EST  -99.99  22.40    6  109    8  27.5 -99.9 1013.4 -9.9 -9.999  97.1 -99.99 -9.99
2019/12/13 11:06 EST  -99.99  22.28    7  104    9  27.5 -99.9 1013.4 -9.9 -9.999  96.0 -99.99 -9.99
2019/12/13 11:12 EST  -99.99  22.44    8   98    9  27.5 -99.9 1013.4 -9.9 -9.999  98.1 -99.99 -9.99
2019/12/13 11:18 EST  -99.99  22.40    7  101    9  27.5 -99.9 1013.3 -9.9 -9.999  98.2 -99.99 -9.99
2019/12/13 11:24 EST  -99.99  22.60    6  114    8  27.5 -99.9 1013.3 -9.9 -9.999  98.3 -99.99 -9.99
2019/12/13 11:30 EST  -99.99  22.36    6  110    8  27.7 -99.9 1013.2 -9.9 -9.999  98.6 -99.99 -9.99
2019/12/13 11:36 EST  -99.99  22.36    7  101    8  27.5 -99.9 1013.1 -9.9 -9.999  98.3 -99.99 -9.99
2019/12/13 11:42 EST  -99.99  22.24    7  101    9  27.7 -99.9 1013.1 -9.9 -9.999  99.0 -99.99 -9.99
2019/12/13 11:48 EST  -99.99  22.05    8   97    9  27.7 -99.9 1013.0 -9.9 -9.999  99.7 -99.99 -9.99
2019/12/13 11:54 EST  -99.99  22.01    7   96    9  27.7 -99.9 1012.9 -9.9 -9.999 100.0 -99.99 -9.99
2019/12/13 12:00 EST  -99.99  21.93    7   98    8  27.5 -99.9 1012.9 -9.9 -9.999  99.8 -99.99 -9.99
2019/12/13 12:06 EST  -99.99  21.50    5  108    8  27.9 -99.9 1012.9 -9.9 -9.999  99.9 -99.99 -9.99
2019/12/13 12:12 EST  -99.99  21.54    6  106    9  27.7 -99.9 1012.9 -9.9 -9.999  99.9 -99.99 -9.99
2019/12/13 12:18 EST  -99.99  21.77    4  117    7  27.9 -99.9 1012.8 -9.9 -9.999 100.0 -99.99 -9.99
2019/12/13 12:24 EST  -99.99  21.97    6   86    8  27.9 -99.9 1012.6 -9.9 -9.999 100.0 -99.99 -9.99
2019/12/13 12:30 EST  -99.99  22.01    7  104    8  27.7 -99.9 1012.6 -9.9 -9.999 100.0 -99.99 -9.99
2019/12/13 12:36 EST  -99.99  21.89    7  103    8  27.9 -99.9 1012.5 -9.9 -9.999 100.0 -99.99 -9.99
2019/12/13 12:42 EST  -99.99  22.01    6  108    8  27.9 -99.9 1012.4 -9.9 -9.999 100.0 -99.99 -9.99
2019/12/13 12:48 EST  -99.99  21.65    7  106    8  27.7 -99.9 1012.2 -9.9 -9.999 100.0 -99.99 -9.99
2019/12/13 12:54 EST  -99.99  21.50    7  107    8  27.9 -99.9 1012.2 -9.9 -9.999 100.0 -99.99 -9.99
2019/12/13 13:00 EST  -99.99  21.46    9  103   10  27.7 -99.9 1012.0 -9.9 -9.999 100.0 -99.99 -9.99
2019/12/13 13:06 EST  -99.99  21.26    9  106   11  27.9 -99.9 1012.0 -9.9 -9.999 100.0 -99.99 -9.99
2019/12/13 13:12 EST  -99.99  21.73    9  104   11  27.7 -99.9 1011.9 -9.9 -9.999 100.0 -99.99 -9.99
2019/12/13 13:18 EST  -99.99  21.26    9  104   11  27.9 -99.9 1011.7 -9.9 -9.999 100.0 -99.99 -9.99
2019/12/13 13:24 EST  -99.99  20.98    7  110   10  27.9 -99.9 1011.7 -9.9 -9.999 100.0 -99.99 -9.99
2019/12/13 13:30 EST  -99.99  21.38    7  110   10  27.9 -99.9 1011.6 -9.9 -9.999 100.0 -99.99 -9.99
2019/12/13 13:36 EST  -99.99  21.02    7  105    9  28.0 -99.9 1011.4 -9.9 -9.999 100.0 -99.99 -9.99
2019/12/13 13:42 EST  -99.99  20.43    8  106   10  28.0 -99.9 1011.3 -9.9 -9.999 100.0 -99.99 -9.99
2019/12/13 13:48 EST  -99.99  20.35    8  101   10  28.0 -99.9 1011.2 -9.9 -9.999 100.0 -99.99 -9.99
2019/12/13 13:54 EST  -99.99  20.20    8   99    9  28.2 -99.9 1011.1 -9.9 -9.999 100.0 -99.99 -9.99
2019/12/13 14:00 EST  -99.99  20.31    8  101   10  28.4 -99.9 1011.0 -9.9 -9.999 100.0 -99.99 -9.99
2019/12/13 14:06 EST  -99.99  20.28    8  105   10  28.4 -99.9 1011.0 -9.9 -9.999 100.0 -99.99 -9.99
2019/12/13 14:12 EST  -99.99  20.24    6  114   10  28.4 -99.9 1011.0 -9.9 -9.999 100.0 -99.99 -9.99
2019/12/13 14:18 EST  -99.99  20.08    8  113   10  28.4 -99.9 1010.9 -9.9 -9.999 100.0 -99.99 -9.99
2019/12/13 14:24 EST  -99.99  20.24    7  116   10  28.4 -99.9 1010.8 -9.9 -9.999 100.0 -99.99 -9.99
2019/12/13 14:30 EST  -99.99  20.47    6  111   10  28.8 -99.9 1010.8 -9.9 -9.999 100.0 -99.99 -9.99
2019/12/13 14:36 EST  -99.99  20.75    7  116   10  28.8 -99.9 1010.7 -9.9 -9.999 100.0 -99.99 -9.99
2019/12/13 14:42 EST  -99.99  20.87    6  115    9  28.8 -99.9 1010.6 -9.9 -9.999 100.0 -99.99 -9.99
2019/12/13 14:48 EST  -99.99  20.87    7  118    9  28.8 -99.9 1010.6 -9.9 -9.999 100.0 -99.99 -9.99
2019/12/13 14:54 EST  -99.99  21.38    5  124    9  28.8 -99.9 1010.7 -9.9 -9.999 100.0 -99.99 -9.99
2019/12/13 15:00 EST  -99.99  21.89    8  104   10  28.9 -99.9 1010.6 -9.9 -9.999 100.0 -99.99 -9.99
2019/12/13 15:06 EST  -99.99  21.97    7  110   10  28.9 -99.9 1010.7 -9.9 -9.999 100.0 -99.99 -9.99
2019/12/13 15:12 EST  -99.99  21.97    7  107    9  29.1 -99.9 1010.7 -9.9 -9.999 100.0 -99.99 -9.99
2019/12/13 15:18 EST  -99.99  22.24    6  119   10  29.1 -99.9 1010.7 -9.9 -9.999 100.0 -99.99 -9.99
2019/12/13 15:24 EST  -99.99  22.44    9  109   10  29.1 -99.9 1010.6 -9.9 -9.999 100.0 -99.99 -9.99
2019/12/13 15:30 EST  -99.99  22.36    5  120   10  29.1 -99.9 1010.6 -9.9 -9.999 100.0 -99.99 -9.99
2019/12/13 15:36 EST  -99.99  22.83    6  123    9  29.1 -99.9 1010.7 -9.9 -9.999 100.0 -99.99 -9.99
2019/12/13 15:42 EST  -99.99  22.72    5  129    7  29.1 -99.9 1010.8 -9.9 -9.999 100.0 -99.99 -9.99
2019/12/13 15:48 EST  -99.99  22.20    6  115    7  29.5 -99.9 1010.7 -9.9 -9.999 100.0 -99.99 -9.99
2019/12/13 15:54 EST  -99.99  22.32    6  111    8  29.7 -99.9 1010.7 -9.9 -9.999 100.0 -99.99 -9.99
2019/12/13 16:00 EST  -99.99  22.09    5  112    8  29.5 -99.9 1010.7 -9.9 -9.999 100.0 -99.99 -9.99
2019/12/13 16:06 EST  -99.99  21.89    7  106    9  29.7 -99.9 1010.6 -9.9 -9.999 100.0 -99.99 -9.99
2019/12/13 16:12 EST  -99.99  21.85    8  106   11  29.5 -99.9 1010.5 -9.9 -9.999 100.0 -99.99 -9.99
2019/12/13 16:18 EST  -99.99  21.89    7  111   10  29.7 -99.9 1010.6 -9.9 -9.999 100.0 -99.99 -9.99
2019/12/13 16:24 EST  -99.99  21.46    7  114    9  29.8 -99.9 1010.7 -9.9 -9.999 100.0 -99.99 -9.99
2019/12/13 16:30 EST  -99.99  21.50    8  110    9  29.8 -99.9 1010.7 -9.9 -9.999 100.0 -99.99 -9.99
2019/12/13 16:36 EST  -99.99  21.46    7  113    8  29.8 -99.9 1010.7 -9.9 -9.999 100.0 -99.99 -9.99
2019/12/13 16:42 EST  -99.99  21.65    7  120   10  29.7 -99.9 1010.7 -9.9 -9.999 100.0 -99.99 -9.99
2019/12/13 16:48 EST  -99.99  21.34    6  117    9  29.8 -99.9 1010.7 -9.9 -9.999 100.0 -99.99 -9.99
2019/12/13 16:54 EST  -99.99  21.30    6  122    8  29.8 -99.9 1010.7 -9.9 -9.999 100.0 -99.99 -9.99
2019/12/13 17:00 EST  -99.99  21.10    6  122    8  29.8 -99.9 1010.7 -9.9 -9.999 100.0 -99.99 -9.99
2019/12/13 17:06 EST  -99.99  20.91    5  128    7  29.8 -99.9 1010.7 -9.9 -9.999 100.0 -99.99 -9.99
2019/12/13 17:12 EST  -99.99  21.06    4  126    7  29.8 -99.9 1010.8 -9.9 -9.999 100.0 -99.99 -9.99
2019/12/13 17:18 EST  -99.99  20.71    4  129    6  29.8 -99.9 1010.7 -9.9 -9.999 100.0 -99.99 -9.99
2019/12/13 17:24 EST  -99.99  20.63    4  128    7  29.8 -99.9 1010.6 -9.9 -9.999 100.0 -99.99 -9.99
2019/12/13 17:30 EST  -99.99  20.63    5  123    7  29.8 -99.9 1010.5 -9.9 -9.999 100.0 -99.99 -9.99
2019/12/13 17:36 EST  -99.99  20.59    5  125    7  30.0 -99.9 1010.4 -9.9 -9.999 100.0 -99.99 -9.99
2019/12/13 17:42 EST  -99.99  20.51    5  124    7  30.2 -99.9 1010.5 -9.9 -9.999 100.0 -99.99 -9.99
2019/12/13 17:48 EST  -99.99  20.43    5  125    7  30.2 -99.9 1010.4 -9.9 -9.999 100.0 -99.99 -9.99
2019/12/13 17:54 EST  -99.99  20.04    6  120    7  30.2 -99.9 1010.3 -9.9 -9.999 100.0 -99.99 -9.99
2019/12/13 18:00 EST  -99.99  20.08    5  116    7  30.4 -99.9 1010.2 -9.9 -9.999 100.0 -99.99 -9.99
2019/12/13 18:06 EST  -99.99  20.55    5  119    7  30.4 -99.9 1010.3 -9.9 -9.999 100.0 -99.99 -9.99
2019/12/13 18:12 EST  -99.99  20.79    6  119    7  30.4 -99.9 1010.2 -9.9 -9.999 100.0 -99.99 -9.99
2019/12/13 18:18 EST  -99.99  20.71    5  129    8  30.6 -99.9 1010.2 -9.9 -9.999 100.0 -99.99 -9.99
2019/12/13 18:24 EST  -99.99  20.94    5  112    7  30.6 -99.9 1010.0 -9.9 -9.999 100.0 -99.99 -9.99
2019/12/13 18:30 EST  -99.99  21.10    4  136    7  30.4 -99.9 1010.1 -9.9 -9.999 100.0 -99.99 -9.99
2019/12/13 18:36 EST  -99.99  21.06    3  140    6  30.4 -99.9 1010.1 -9.9 -9.999 100.0 -99.99 -9.99
2019/12/13 18:42 EST  -99.99  21.14    4  132    6  30.4 -99.9 1010.1 -9.9 -9.999 100.0 -99.99 -9.99
2019/12/13 18:48 EST  -99.99  21.06    4  143    6  30.4 -99.9 1010.1 -9.9 -9.999 100.0 -99.99 -9.99
2019/12/13 18:54 EST  -99.99  21.54    4  124    6  30.4 -99.9 1010.0 -9.9 -9.999 100.0 -99.99 -9.99
2019/12/13 19:00 EST  -99.99  21.38    4  136    6  30.4 -99.9 1010.0 -9.9 -9.999 100.0 -99.99 -9.99
2019/12/13 19:06 EST  -99.99  21.38    4  140    5  30.4 -99.9 1009.9 -9.9 -9.999 100.0 -99.99 -9.99
2019/12/13 19:12 EST  -99.99  21.14    4  127    5  30.4 -99.9 1009.8 -9.9 -9.999 100.0 -99.99 -9.99
2019/12/13 19:18 EST  -99.99  21.06    4  131    6  30.6 -99.9 1009.8 -9.9 -9.999 100.0 -99.99 -9.99
2019/12/13 19:24 EST  -99.99  20.79    4  136    7  30.6 -99.9 1009.8 -9.9 -9.999 100.0 -99.99 -9.99
2019/12/13 19:30 EST  -99.99  21.22    4  127    6  30.6 -99.9 1009.7 -9.9 -9.999 100.0 -99.99 -9.99
2019/12/13 19:36 EST  -99.99  21.06    4  131    6  30.6 -99.9 1009.7 -9.9 -9.999 100.0 -99.99 -9.99
2019/12/13 19:42 EST  -99.99  21.26    3  156    7  30.4 -99.9 1009.6 -9.9 -9.999 100.0 -99.99 -9.99
2019/12/13 19:48 EST  -99.99  21.46    4  134    6  30.6 -99.9 1009.5 -9.9 -9.999 100.0 -99.99 -9.99
2019/12/13 19:54 EST  -99.99  21.34    3  141    5  30.6 -99.9 1009.5 -9.9 -9.999 100.0 -99.99 -9.99
2019/12/13 20:00 EST  -99.99  21.85    3  145    6  30.4 -99.9 1009.6 -9.9 -9.999 100.0 -99.99 -9.99
2019/12/13 20:06 EST  -99.99  21.93    4  146    7  30.4 -99.9 1009.6 -9.9 -9.999 100.0 -99.99 -9.99
2019/12/13 20:12 EST  -99.99  22.09    4  144    5  30.4 -99.9 1009.6 -9.9 -9.999 100.0 -99.99 -9.99
2019/12/13 20:18 EST  -99.99  22.09    4  128    6  30.4 -99.9 1009.5 -9.9 -9.999 100.0 -99.99 -9.99
2019/12/13 20:24 EST  -99.99  22.09    4  150    5  30.4 -99.9 1009.5 -9.9 -9.999 100.0 -99.99 -9.99
2019/12/13 20:30 EST  -99.99  22.60    3  146    4  30.2 -99.9 1009.4 -9.9 -9.999 100.0 -99.99 -9.99
2019/12/13 20:36 EST  -99.99  22.52    2  151    4  30.2 -99.9 1009.4 -9.9 -9.999 100.0 -99.99 -9.99
2019/12/13 20:42 EST  -99.99  22.28    3  141    5  30.2 -99.9 1009.3 -9.9 -9.999 100.0 -99.99 -9.99
2019/12/13 20:48 EST  -99.99  22.24    3  146    5  30.0 -99.9 1009.2 -9.9 -9.999 100.0 -99.99 -9.99
2019/12/13 20:54 EST  -99.99  22.17    3  146    4  30.2 -99.9 1009.2 -9.9 -9.999 100.0 -99.99 -9.99
2019/12/13 21:00 EST  -99.99  21.81    4  140    5  30.0 -99.9 1009.2 -9.9 -9.999 100.0 -99.99 -9.99
2019/12/13 21:06 EST  -99.99  22.01    4  138    5  30.0 -99.9 1009.2 -9.9 -9.999 100.0 -99.99 -9.99
2019/12/13 21:12 EST  -99.99  21.73    4  129    5  30.2 -99.9 1009.1 -9.9 -9.999 100.0 -99.99 -9.99
2019/12/13 21:18 EST  -99.99  22.13    3  131    6  30.2 -99.9 1009.0 -9.9 -9.999 100.0 -99.99 -9.99
2019/12/13 21:24 EST  -99.99  22.32    4  148    5  30.2 -99.9 1009.1 -9.9 -9.999 100.0 -99.99 -9.99
2019/12/13 21:30 EST  -99.99  22.32    4  131    5  30.2 -99.9 1008.9 -9.9 -9.999 100.0 -99.99 -9.99
2019/12/13 21:36 EST  -99.99  22.32    4  135    6  30.2 -99.9 1008.8 -9.9 -9.999 100.0 -99.99 -9.99
2019/12/13 21:42 EST  -99.99  22.36    4  143    5  30.2 -99.9 1008.7 -9.9 -9.999 100.0 -99.99 -9.99
2019/12/13 21:48 EST  -99.99  22.72    4  137    6  30.4 -99.9 1008.7 -9.9 -9.999 100.0 -99.99 -9.99
2019/12/13 21:54 EST  -99.99  22.48    3  135    5  30.4 -99.9 1008.5 -9.9 -9.999 100.0 -99.99 -9.99
2019/12/13 22:00 EST  -99.99  22.56    3  141    6  30.4 -99.9 1008.5 -9.9 -9.999 100.0 -99.99 -9.99
2019/12/13 22:06 EST  -99.99  22.64    3  139    5  30.4 -99.9 1008.4 -9.9 -9.999 100.0 -99.99 -9.99
2019/12/13 22:12 EST  -99.99  22.72    3  141    5  30.4 -99.9 1008.4 -9.9 -9.999 100.0 -99.99 -9.99
2019/12/13 22:18 EST  -99.99  22.48    3  149    6  30.4 -99.9 1008.3 -9.9 -9.999 100.0 -99.99 -9.99
2019/12/13 22:24 EST  -99.99 -99.99 -999 -999 -999 -99.9 -99.9 -999.9 -9.9 -9.999 -99.9 -99.99 -9.99
2019/12/13 22:30 EST  -99.99 -99.99 -999 -999 -999 -99.9 -99.9 -999.9 -9.9 -9.999 -99.9 -99.99 -9.99
2019/12/13 22:36 EST  -99.99 -99.99 -999 -999 -999 -99.9 -99.9 -999.9 -9.9 -9.999 -99.9 -99.99 -9.99
2019/12/13 22:42 EST  -99.99 -99.99 -999 -999 -999 -99.9 -99.9 -999.9 -9.9 -9.999 -99.9 -99.99 -9.99
2019/12/13 22:48 EST  -99.99 -99.99 -999 -999 -999 -99.9 -99.9 -999.9 -9.9 -9.999 -99.9 -99.99 -9.99
2019/12/13 22:54 EST  -99.99 -99.99 -999 -999 -999 -99.9 -99.9 -999.9 -9.9 -9.999 -99.9 -99.99 -9.99
2019/12/13 23:00 EST  -99.99 -99.99 -999 -999 -999 -99.9 -99.9 -999.9 -9.9 -9.999 -99.9 -99.99 -9.99
2019/12/13 23:06 EST  -99.99 -99.99 -999 -999 -999 -99.9 -99.9 -999.9 -9.9 -9.999 -99.9 -99.99 -9.99
2019/12/13 23:12 EST  -99.99 -99.99 -999 -999 -999 -99.9 -99.9 -999.9 -9.9 -9.999 -99.9 -99.99 -9.99
2019/12/13 23:18 EST  -99.99 -99.99 -999 -999 -999 -99.9 -99.9 -999.9 -9.9 -9.999 -99.9 -99.99 -9.99
2019/12/13 23:24 EST  -99.99 -99.99 -999 -999 -999 -99.9 -99.9 -999.9 -9.9 -9.999 -99.9 -99.99 -9.99
2019/12/13 23:30 EST  -99.99 -99.99 -999 -999 -999 -99.9 -99.9 -999.9 -9.9 -9.999 -99.9 -99.99 -9.99
2019/12/13 23:36 EST  -99.99 -99.99 -999 -999 -999 -99.9 -99.9 -999.9 -9.9 -9.999 -99.9 -99.99 -9.99
2019/12/13 23:42 EST  -99.99 -99.99 -999 -999 -999 -99.9 -99.9 -999.9 -9.9 -9.999 -99.9 -99.99 -9.99
2019/12/13 23:48 EST  -99.99 -99.99 -999 -999 -999 -99.9 -99.9 -999.9 -9.9 -9.999 -99.9 -99.99 -9.99
2019/12/13 23:54 EST  -99.99 -99.99 -999 -999 -999 -99.9 -99.9 -999.9 -9.9 -9.999 -99.9 -99.99 -9.99
2019/12/14 00:00 EST  -99.99 -99.99 -999 -999 -999 -99.9 -99.9 -999.9 -9.9 -9.999 -99.9 -99.99 -9.99
2019/12/14 00:06 EST  -99.99 -99.99 -999 -999 -999 -99.9 -99.9 -999.9 -9.9 -9.999 -99.9 -99.99 -9.99
2019/12/14 00:12 EST  -99.99 -99.99 -999 -999 -999 -99.9 -99.9 -999.9 -9.9 -9.999 -99.9 -99.99 -9.99
2019/12/14 00:18 EST  -99.99 -99.99 -999 -999 -999 -99.9 -99.9 -999.9 -9.9 -9.999 -99.9 -99.99 -9.99
2019/12/14 00:24 EST  -99.99 -99.99 -999 -999 -999 -99.9 -99.9 -999.9 -9.9 -9.999 -99.9 -99.99 -9.99
2019/12/14 00:30 EST  -99.99 -99.99 -999 -999 -999 -99.9 -99.9 -999.9 -9.9 -9.999 -99.9 -99.99 -9.99
2019/12/14 00:36 EST  -99.99 -99.99 -999 -999 -999 -99.9 -99.9 -999.9 -9.9 -9.999 -99.9 -99.99 -9.99
2019/12/14 00:42 EST  -99.99 -99.99 -999 -999 -999 -99.9 -99.9 -999.9 -9.9 -9.999 -99.9 -99.99 -9.99
2019/12/14 00:48 EST  -99.99 -99.99 -999 -999 -999 -99.9 -99.9 -999.9 -9.9 -9.999 -99.9 -99.99 -9.99
2019/12/14 00:54 EST  -99.99 -99.99 -999 -999 -999 -99.9 -99.9 -999.9 -9.9 -9.999 -99.9 -99.99 -9.99
2019/12/14 01:00 EST  -99.99 -99.99 -999 -999 -999 -99.9 -99.9 -999.9 -9.9 -9.999 -99.9 -99.99 -9.99
2019/12/14 01:06 EST  -99.99 -99.99 -999 -999 -999 -99.9 -99.9 -999.9 -9.9 -9.999 -99.9 -99.99 -9.99
2019/12/14 01:12 EST  -99.99 -99.99 -999 -999 -999 -99.9 -99.9 -999.9 -9.9 -9.999 -99.9 -99.99 -9.99
2019/12/14 01:18 EST  -99.99 -99.99 -999 -999 -999 -99.9 -99.9 -999.9 -9.9 -9.999 -99.9 -99.99 -9.99
2019/12/14 01:24 EST  -99.99 -99.99 -999 -999 -999 -99.9 -99.9 -999.9 -9.9 -9.999 -99.9 -99.99 -9.99
2019/12/14 01:30 EST  -99.99 -99.99 -999 -999 -999 -99.9 -99.9 -999.9 -9.9 -9.999 -99.9 -99.99 -9.99
2019/12/14 01:36 EST  -99.99 -99.99 -999 -999 -999 -99.9 -99.9 -999.9 -9.9 -9.999 -99.9 -99.99 -9.99
2019/12/14 01:42 EST  -99.99 -99.99 -999 -999 -999 -99.9 -99.9 -999.9 -9.9 -9.999 -99.9 -99.99 -9.99
2019/12/14 01:48 EST  -99.99 -99.99 -999 -999 -999 -99.9 -99.9 -999.9 -9.9 -9.999 -99.9 -99.99 -9.99
2019/12/14 01:54 EST  -99.99 -99.99 -999 -999 -999 -99.9 -99.9 -999.9 -9.9 -9.999 -99.9 -99.99 -9.99
2019/12/14 02:00 EST  -99.99 -99.99 -999 -999 -999 -99.9 -99.9 -999.9 -9.9 -9.999 -99.9 -99.99 -9.99
2019/12/14 02:06 EST  -99.99 -99.99 -999 -999 -999 -99.9 -99.9 -999.9 -9.9 -9.999 -99.9 -99.99 -9.99
2019/12/14 02:12 EST  -99.99 -99.99 -999 -999 -999 -99.9 -99.9 -999.9 -9.9 -9.999 -99.9 -99.99 -9.99
2019/12/14 02:18 EST  -99.99 -99.99 -999 -999 -999 -99.9 -99.9 -999.9 -9.9 -9.999 -99.9 -99.99 -9.99
2019/12/14 02:24 EST  -99.99 -99.99 -999 -999 -999 -99.9 -99.9 -999.9 -9.9 -9.999 -99.9 -99.99 -9.99
2019/12/14 02:30 EST  -99.99 -99.99 -999 -999 -999 -99.9 -99.9 -999.9 -9.9 -9.999 -99.9 -99.99 -9.99
2019/12/14 02:36 EST  -99.99 -99.99 -999 -999 -999 -99.9 -99.9 -999.9 -9.9 -9.999 -99.9 -99.99 -9.99
2019/12/14 02:42 EST  -99.99 -99.99 -999 -999 -999 -99.9 -99.9 -999.9 -9.9 -9.999 -99.9 -99.99 -9.99
2019/12/14 02:48 EST  -99.99 -99.99 -999 -999 -999 -99.9 -99.9 -999.9 -9.9 -9.999 -99.9 -99.99 -9.99
2019/12/14 02:54 EST  -99.99 -99.99 -999 -999 -999 -99.9 -99.9 -999.9 -9.9 -9.999 -99.9 -99.99 -9.99
2019/12/14 03:00 EST  -99.99 -99.99 -999 -999 -999 -99.9 -99.9 -999.9 -9.9 -9.999 -99.9 -99.99 -9.99
2019/12/14 03:06 EST  -99.99 -99.99 -999 -999 -999 -99.9 -99.9 -999.9 -9.9 -9.999 -99.9 -99.99 -9.99
2019/12/14 03:12 EST  -99.99 -99.99 -999 -999 -999 -99.9 -99.9 -999.9 -9.9 -9.999 -99.9 -99.99 -9.99
2019/12/14 03:18 EST  -99.99 -99.99 -999 -999 -999 -99.9 -99.9 -999.9 -9.9 -9.999 -99.9 -99.99 -9.99
2019/12/14 03:24 EST  -99.99 -99.99 -999 -999 -999 -99.9 -99.9 -999.9 -9.9 -9.999 -99.9 -99.99 -9.99
2019/12/14 03:30 EST  -99.99 -99.99 -999 -999 -999 -99.9 -99.9 -999.9 -9.9 -9.999 -99.9 -99.99 -9.99
2019/12/14 03:36 EST  -99.99 -99.99 -999 -999 -999 -99.9 -99.9 -999.9 -9.9 -9.999 -99.9 -99.99 -9.99
2019/12/14 03:42 EST  -99.99 -99.99 -999 -999 -999 -99.9 -99.9 -999.9 -9.9 -9.999 -99.9 -99.99 -9.99
2019/12/14 03:48 EST  -99.99 -99.99 -999 -999 -999 -99.9 -99.9 -999.9 -9.9 -9.999 -99.9 -99.99 -9.99
2019/12/14 03:54 EST  -99.99 -99.99 -999 -999 -999 -99.9 -99.9 -999.9 -9.9 -9.999 -99.9 -99.99 -9.99
2019/12/14 04:00 EST  -99.99 -99.99 -999 -999 -999 -99.9 -99.9 -999.9 -9.9 -9.999 -99.9 -99.99 -9.99
2019/12/14 04:06 EST  -99.99 -99.99 -999 -999 -999 -99.9 -99.9 -999.9 -9.9 -9.999 -99.9 -99.99 -9.99
2019/12/14 04:12 EST  -99.99 -99.99 -999 -999 -999 -99.9 -99.9 -999.9 -9.9 -9.999 -99.9 -99.99 -9.99
2019/12/14 04:18 EST  -99.99 -99.99 -999 -999 -999 -99.9 -99.9 -999.9 -9.9 -9.999 -99.9 -99.99 -9.99
2019/12/14 04:24 EST  -99.99 -99.99 -999 -999 -999 -99.9 -99.9 -999.9 -9.9 -9.999 -99.9 -99.99 -9.99
2019/12/14 04:30 EST  -99.99 -99.99 -999 -999 -999 -99.9 -99.9 -999.9 -9.9 -9.999 -99.9 -99.99 -9.99